weather.gov     
National Weather Service

Terminal Aerodrome Forecast
NWS Homepage
This page is being discontinued on March 12, 2014.
The same data is available at this site. Please update your bookmarks.
Thank you, and we apologize for the inconvenience.
Please send an email to SR-SRH.Webmaster@noaa.gov with any concerns.


Current Version
Previous Version:    01  02  03  04  05  06  07  08  09  10  11  12  13  14  15  16  17  18  19  20  21  22  23  24  25  26  27  
[Printable]
516
FTUS43 KSGF 010500
TAFBBG
TAF
KBBG 010533Z 0106/0206 15011KT 6SM -SHRA BR SCT025 BKN035 OVC060
     FM010800 16011KT 5SM -RA BR OVC025 WS020/21040KT
     FM011100 17009KT 4SM -RA BR OVC007
     FM011500 23009KT 3SM -DZRA BR OVC007
     FM011800 28012G23KT 5SM -RADZ OVC007
     FM012200 30014G25KT P6SM OVC015=


U.S. Dept. of Commerce
NOAA National Weather Service
1325 East West Highway
Silver Spring, MD 20910
E-mail: w-nws.webmaster@noaa.gov
Page last modified: May 16, 2007
NATIONAL WEATHER SERVICE: for Safety, for Work, for Fun - FOR LIFE